GW3385 Weather Reports


time (UTC)temp
C
wind
direction
speed
KPH
gust
KPH
rain 1hr
cm
rain 24hr
cm
rain mn
cm
humidity
%
barometer
mb
20260902191555 23 288 9.7 19.3 0.00 0.00 0.00 68 1015.1
20260902191054 23 226 6.4 19.3 0.00 0.00 0.00 68 1015.1
20260902190555 22 158 4.8 16.1 0.00 0.00 0.00 69 1015.1
20260902190058 22 189 6.4 17.7 0.00 0.00 0.00 70 1015.1
20260902185558 22 161 8.0 17.7 0.00 0.00 0.00 70 1015.1
20260902185056 22 215 9.7 16.1 0.00 0.00 0.00 70 1015.2
20260902184557 22 220 4.8 19.3 0.00 0.00 0.00 70 1015.2
20260902184055 22 270 9.7 19.3 0.00 0.00 0.00 70 1015.3
20260902183553 22 267 4.8 14.5 0.00 0.00 0.00 70 1015.4
20260902183113 22 281 3.2 16.1 0.00 0.00 0.00 71 1015.3
20260902182553 22 172 4.8 16.1 0.00 0.00 0.00 70 1015.3
20260902182056 22 213 8.0 14.5 0.00 0.00 0.00 70 1015.3
20260902181612 22 201 3.2 14.5 0.00 0.00 0.00 70 1015.3
20260902181052 22 239 8.0 14.5 0.00 0.00 0.00 69 1015.3
20260902180553 22 100 3.2 12.9 0.00 0.00 0.00 69 1015.4
20260902180057 22 177 4.8 12.9 0.00 0.00 0.00 69 1015.4
20260902175552 22 212 4.8 11.3 0.00 0.00 0.00 68 1015.4
20260902175054 23 200 3.2 9.7 0.00 0.00 0.00 67 1015.3
20260902174608 23 258 0.0 8.0 0.00 0.00 0.00 65 1015.3
20260902174054 23 142 1.6 14.5 0.00 0.00 0.00 66 1015.3
20260902173554 22 161 1.6 14.5 0.00 0.00 0.00 67 1015.5
20260902173117 22 145 3.2 11.3 0.00 0.00 0.00 68 1015.5
20260902172552 22 124 1.6 11.3 0.00 0.00 0.00 69 1015.6
20260902172052 22 225 1.6 11.3 0.00 0.00 0.00 68 1015.5
20260902171558 22 156 4.8 11.3 0.00 0.00 0.00 69 1015.5
20260902171053 22 242 3.2 11.3 0.00 0.00 0.00 69 1015.5
20260902170553 22 107 0.0 9.7 0.00 0.00 0.00 70 1015.4
20260902165553 21 0 3.2 9.7 0.00 0.00 0.00 71 1015.4
20260902165052 21 40 3.2 11.3 0.00 0.00 0.00 71 1015.4
20260902164606 21 122 1.6 11.3 0.00 0.00 0.00 72 1015.3
20260902164055 21 92 0.0 12.9 0.00 0.00 0.00 72 1015.2
20260902163552 21 0 3.2 12.9 0.00 0.00 0.00 72 1015.3
20260902163100 21 98 3.2 12.9 0.00 0.00 0.00 72 1015.2
20260902162552 21 107 3.2 11.3 0.00 0.00 0.00 72 1015.2
20260902162054 21 38 0.0 6.4 0.00 0.00 0.00 74 1015.2
20260902161607 21 97 1.6 9.7 0.00 0.00 0.00 74 1015.3
20260902161052 21 107 3.2 9.7 0.00 0.00 0.00 74 1015.2
20260902160554 21 111 1.6 9.7 0.00 0.00 0.00 74 1015.2
20260902160103 21 275 1.6 9.7 0.00 0.00 0.00 73 1015.2
20260902155553 21 168 0.0 4.8 0.00 0.00 0.00 74 1015.2
20260902155053 21 90 0.0 4.8 0.00 0.00 0.00 74 1015.2
20260902154605 21 0 0.0 6.4 0.00 0.00 0.00 76 1015.2
20260902154054 20 0 1.6 6.4 0.00 0.00 0.00 76 1015.1
20260902153556 21 245 1.6 6.4 0.00 0.00 0.00 74 1015.1
20260902153109 21 0 0.0 0.0 0.00 0.00 0.00 76 1015.1
20260902152558 21 0 0.0 0.0 0.00 0.00 0.00 77 1015.2
20260902152054 20 0 0.0 0.0 0.00 0.00 0.00 79 1015.1
20260902151601 20 0 0.0 0.0 0.00 0.00 0.00 80 1015.1
20260902151058 20 0 0.0 0.0 0.00 0.00 0.00 81 1015.1
20260902150555 19 0 0.0 0.0 0.00 0.00 0.00 82 1015.0
20260902145555 18 0 0.0 0.0 0.00 0.00 0.00 85 1015.2
20260902145055 18 0 0.0 0.0 0.00 0.00 0.00 87 1015.1
20260902144557 17 0 0.0 0.0 0.00 0.00 0.00 88 1015.1
20260902144054 17 0 0.0 0.0 0.00 0.00 0.00 89 1015.2
20260902143555 17 0 0.0 0.0 0.00 0.00 0.00 89 1015.1
20260902143109 17 0 0.0 0.0 0.00 0.00 0.00 91 1015.1
20260902142552 16 0 0.0 0.0 0.00 0.00 0.00 91 1015.0
20260902142052 16 0 0.0 0.0 0.00 0.00 0.00 90 1015.0
20260902141602 16 0 0.0 3.2 0.00 0.00 0.00 91 1015.0
20260902141054 16 0 0.0 4.8 0.00 0.00 0.00 91 1014.8
20260902140553 16 0 1.6 4.8 0.00 0.00 0.00 91 1014.7
20260902140056 16 327 0.0 4.8 0.00 0.00 0.00 91 1014.6
20260902135552 16 0 1.6 6.4 0.00 0.00 0.00 91 1014.6
20260902135052 16 343 3.2 6.4 0.00 0.00 0.00 90 1014.5
20260902134555 16 352 1.6 8.0 0.00 0.00 0.00 91 1014.5
20260902134052 16 336 3.2 8.0 0.00 0.00 0.00 91 1014.5
20260902133555 16 345 3.2 8.0 0.00 0.00 0.00 91 1014.5
20260902133101 16 335 3.2 8.0 0.00 0.00 0.00 90 1014.5
20260902132552 16 336 3.2 6.4 0.00 0.00 0.00 90 1014.6
20260902132053 16 331 1.6 6.4 0.00 0.00 0.00 90 1014.5
20260902131559 16 0 3.2 6.4 0.00 0.00 0.00 90 1014.5
20260902131053 16 0 0.0 6.4 0.00 0.00 0.00 90 1014.6
20260902130552 16 0 3.2 6.4 0.00 0.00 0.00 90 1014.3
20260902130105 16 352 0.0 6.4 0.00 0.00 0.00 91 1014.3
20260902125553 16 0 0.0 3.2 0.00 0.00 0.00 90 1014.3
20260902125055 16 0 0.0 3.2 0.00 0.00 0.00 90 1014.4
20260902124554 16 0 0.0 4.8 0.00 0.00 0.00 90 1014.4
20260902124052 16 352 0.0 6.4 0.00 0.00 0.00 90 1014.3
20260902123556 16 0 0.0 6.4 0.00 0.00 0.00 90 1014.3
20260902123109 16 335 1.6 6.4 0.00 0.00 0.00 90 1014.3
20260902122555 16 0 0.0 3.2 0.00 0.00 0.00 90 1014.5
20260902122052 16 0 0.0 3.2 0.00 0.00 0.00 90 1014.5
20260902121559 16 332 0.0 6.4 0.00 0.00 0.00 90 1014.5
20260902121054 16 0 0.0 6.4 0.00 0.00 0.00 90 1014.5
20260902120557 16 0 0.0 6.4 0.00 0.00 0.00 90 1014.5
20260902120059 16 0 0.0 0.0 0.00 0.00 0.00 89 1014.6
20260902115556 16 0 0.0 0.0 0.00 0.00 0.00 89 1014.6
20260902115054 16 0 0.0 0.0 0.00 0.00 0.00 89 1014.6
20260902114555 16 0 0.0 0.0 0.00 0.00 0.00 89 1014.6
20260902114055 16 0 0.0 0.0 0.00 0.00 0.00 89 1014.5
20260902113552 16 0 0.0 0.0 0.00 0.00 0.00 89 1014.5
20260902113101 16 0 0.0 0.0 0.00 0.00 0.00 89 1014.6
20260902112552 16 0 0.0 0.0 0.00 0.00 0.00 88 1014.6
20260902112055 16 0 0.0 0.0 0.00 0.00 0.00 89 1014.5
20260902111603 16 0 0.0 0.0 0.00 0.00 0.00 89 1014.5
20260902111055 16 0 0.0 0.0 0.00 0.00 0.00 89 1014.5
20260902110555 16 0 0.0 0.0 0.00 0.00 0.00 89 1014.5
20260902110103 16 0 0.0 0.0 0.00 0.00 0.00 88 1014.6
20260902105554 16 0 0.0 0.0 0.00 0.00 0.00 88 1014.5
20260902105054 16 0 0.0 0.0 0.00 0.00 0.00 88 1014.5
20260902104613 16 0 0.0 0.0 0.00 0.00 0.00 88 1014.5
20260902104055 16 0 0.0 3.2 0.00 0.00 0.00 88 1014.6
20260902103554 16 0 0.0 3.2 0.00 0.00 0.00 88 1014.6
20260902103109 16 0 0.0 4.8 0.00 0.00 0.00 88 1014.5
20260902102554 16 0 0.0 4.8 0.00 0.00 0.00 88 1014.6
20260902102055 16 0 0.0 4.8 0.00 0.00 0.00 88 1014.5
20260902101607 16 0 0.0 3.2 0.00 0.00 0.00 88 1014.5
20260902101057 16 0 0.0 3.2 0.00 0.00 0.00 88 1014.5
20260902100555 16 0 0.0 4.8 0.00 0.00 0.00 88 1014.5
20260902100100 16 65 1.6 6.4 0.00 0.00 0.00 88 1014.5
20260902095555 16 66 1.6 6.4 0.00 0.00 0.00 88 1014.5
20260902095056 16 72 0.0 4.8 0.00 0.00 0.00 88 1014.6
20260902094555 16 0 0.0 4.8 0.00 0.00 0.00 88 1014.6
20260902094055 16 0 1.6 4.8 0.00 0.00 0.00 88 1014.6
20260902093555 16 0 0.0 4.8 0.00 0.00 0.00 88 1014.6
20260902093054 16 0 0.0 0.0 0.00 0.00 0.00 88 1014.5
20260902092558 16 0 0.0 0.0 0.00 0.00 0.00 88 1014.6
20260902092056 16 0 0.0 0.0 0.00 0.00 0.00 88 1014.5
20260902091601 16 0 0.0 0.0 0.00 0.00 0.00 87 1014.6
20260902091055 16 0 0.0 0.0 0.00 0.00 0.00 87 1014.6
20260902090555 16 0 0.0 0.0 0.00 0.00 0.00 87 1014.5
20260902090057 16 0 0.0 0.0 0.00 0.00 0.00 87 1014.5
20260902085554 16 0 0.0 0.0 0.00 0.00 0.00 87 1014.5
20260902085054 16 0 0.0 0.0 0.00 0.00 0.00 87 1014.6
20260902084558 16 0 0.0 0.0 0.00 0.00 0.00 87 1014.6
20260902084055 16 0 0.0 0.0 0.00 0.00 0.00 87 1014.6
20260902083557 16 0 0.0 0.0 0.00 0.00 0.00 87 1014.6
20260902083057 16 0 0.0 0.0 0.00 0.00 0.00 86 1014.5
20260902082554 16 0 0.0 0.0 0.00 0.00 0.00 86 1014.5
20260902082055 16 0 0.0 0.0 0.00 0.00 0.00 86 1014.6
20260902081601 16 0 0.0 0.0 0.00 0.00 0.00 86 1014.6
20260902081055 16 0 0.0 0.0 0.00 0.00 0.00 85 1014.5
20260902080555 17 0 0.0 0.0 0.00 0.00 0.00 85 1014.6
20260902080059 17 0 0.0 0.0 0.00 0.00 0.00 85 1014.5
20260902075555 17 0 0.0 0.0 0.00 0.00 0.00 85 1014.5
20260902075055 17 0 0.0 4.8 0.00 0.00 0.00 85 1014.6
20260902074556 17 0 0.0 4.8 0.00 0.00 0.00 85 1014.5
20260902074055 17 0 1.6 4.8 0.00 0.00 0.00 85 1014.5
20260902073555 17 0 0.0 3.2 0.00 0.00 0.00 85 1014.5
20260902073105 17 0 0.0 3.2 0.00 0.00 0.00 85 1014.5
20260902072556 17 55 0.0 3.2 0.00 0.00 0.00 84 1014.5
20260902072058 17 26 0.0 3.2 0.00 0.00 0.00 84 1014.5
20260902071601 17 17 0.0 3.2 0.00 0.00 0.00 84 1014.5
20260902071056 17 0 0.0 0.0 0.00 0.00 0.00 84 1014.3
20260902070556 17 0 0.0 0.0 0.00 0.00 0.00 84 1014.3
20260902065557 17 0 0.0 3.2 0.00 0.00 0.00 84 1014.4
20260902065058 17 0 0.0 3.2 0.00 0.00 0.00 83 1014.3
20260902064604 17 0 0.0 3.2 0.00 0.00 0.00 83 1014.3
20260902064057 17 0 0.0 3.2 0.00 0.00 0.00 84 1014.3
20260902063555 17 0 0.0 3.2 0.00 0.00 0.00 84 1014.3
20260902063113 17 0 0.0 0.0 0.00 0.00 0.00 83 1014.2
20260902062554 17 0 0.0 0.0 0.00 0.00 0.00 83 1014.3
20260902062056 17 0 0.0 1.6 0.00 0.00 0.00 84 1014.3
20260902061625 17 0 0.0 1.6 0.00 0.00 0.00 83 1014.3
20260902061101 17 0 0.0 1.6 0.00 0.00 0.00 83 1014.3
20260902060555 17 0 0.0 0.0 0.00 0.00 0.00 83 1014.3
20260902060109 17 0 0.0 0.0 0.00 0.00 0.00 83 1014.2
20260902055554 17 0 0.0 0.0 0.00 0.00 0.00 83 1014.2
20260902055055 17 0 0.0 3.2 0.00 0.00 0.00 82 1014.2
20260902054556 17 0 0.0 3.2 0.00 0.00 0.00 82 1014.2
20260902054054 17 0 0.0 3.2 0.00 0.00 0.00 82 1014.2
20260902053554 17 0 0.0 1.6 0.00 0.00 0.00 82 1014.1
20260902053059 17 0 0.0 1.6 0.00 0.00 0.00 82 1014.1
20260902052558 17 0 0.0 0.0 0.00 0.00 0.00 82 1014.2
20260902052055 17 0 0.0 1.6 0.00 0.00 0.00 82 1014.2
20260902051614 17 0 0.0 1.6 0.00 0.00 0.00 82 1014.2
20260902051055 17 0 0.0 0.0 0.00 0.00 0.00 82 1014.1
20260902050558 17 0 0.0 1.6 0.00 0.00 0.00 82 1014.1
20260902045554 17 0 0.0 0.0 0.00 0.00 0.00 82 1014.0
20260902045051 18 0 0.0 0.0 0.00 0.00 0.00 81 1013.9
20260902044621 18 0 0.0 0.0 0.00 0.00 0.00 81 1013.9
20260902044052 18 0 0.0 3.2 0.00 0.00 0.00 81 1013.8
20260902043554 18 0 0.0 3.2 0.00 0.00 0.00 81 1013.7
20260902043055 18 0 0.0 3.2 0.00 0.00 0.00 80 1013.7
20260902042551 18 0 0.0 0.0 0.00 0.00 0.00 80 1013.6
20260902042055 18 0 0.0 0.0 0.00 0.00 0.00 80 1013.5
20260902041605 18 0 0.0 3.2 0.00 0.00 0.00 79 1013.5
20260902041057 18 0 0.0 3.2 0.00 0.00 0.00 79 1013.4
20260902040555 18 0 0.0 4.8 0.00 0.00 0.00 79 1013.4
20260902035554 18 335 0.0 3.2 0.00 0.00 0.00 78 1013.4
20260902035054 19 0 0.0 3.2 0.00 0.00 0.00 78 1013.3
20260902034601 19 0 0.0 0.0 0.00 0.00 0.00 77 1013.3
20260902034054 19 0 0.0 0.0 0.00 0.00 0.00 77 1013.3
20260902033551 19 0 0.0 0.0 0.00 0.00 0.00 77 1013.3
20260902033100 19 0 0.0 3.2 0.00 0.00 0.00 77 1013.2
20260902032557 19 0 0.0 6.4 0.00 0.00 0.00 76 1013.2
20260902032055 20 0 1.6 6.4 0.00 0.00 0.00 76 1013.1
20260902031621 20 0 0.0 9.7 0.00 0.00 0.00 76 1013.2
20260902031055 20 0 3.2 9.7 0.00 0.00 0.00 76 1013.2
20260902030555 20 264 3.2 9.7 0.00 0.00 0.00 77 1013.1
20260902025555 20 0 0.0 16.1 0.00 0.00 0.00 77 1013.0
20260902025055 20 292 6.4 16.1 0.00 0.00 0.00 76 1013.0
20260902024605 20 273 1.6 16.1 0.00 0.00 0.00 76 1012.9
20260902024054 20 166 4.8 16.1 0.00 0.00 0.00 76 1012.9
20260902023554 20 269 8.0 14.5 0.00 0.00 0.00 76 1012.8
20260902023103 20 276 6.4 14.5 0.00 0.00 0.00 75 1012.9
20260902022558 20 282 3.2 11.3 0.00 0.00 0.00 75 1012.7
20260902022051 20 181 3.2 9.7 0.00 0.00 0.00 75 1012.6
20260902021603 20 261 3.2 12.9 0.00 0.00 0.00 75 1012.7
20260902021055 20 240 3.2 12.9 0.00 0.00 0.00 74 1012.8
20260902020555 20 176 4.8 11.3 0.00 0.00 0.00 75 1012.7
20260902020101 20 239 6.4 16.1 0.00 0.00 0.00 75 1012.7
20260902015551 20 188 4.8 16.1 0.00 0.00 0.00 75 1012.7
20260902015055 21 297 9.7 16.1 0.00 0.00 0.00 74 1012.7
20260902014559 21 302 6.4 14.5 0.00 0.00 0.00 75 1012.8
20260902014056 21 306 4.8 16.1 0.00 0.00 0.00 75 1012.8
20260902013555 21 278 6.4 16.1 0.00 0.00 0.00 74 1012.7
20260902013105 21 277 8.0 14.5 0.00 0.00 0.00 74 1012.8
20260902012554 21 233 6.4 14.5 0.00 0.00 0.00 74 1012.8
20260902012056 21 146 8.0 14.5 0.00 0.00 0.00 73 1012.8
20260902011558 21 206 4.8 14.5 0.00 0.00 0.00 73 1012.7
20260902011058 22 261 4.8 14.5 0.00 0.00 0.00 73 1012.8
20260902010554 22 269 3.2 14.5 0.00 0.00 0.00 73 1012.9
20260902010105 21 235 4.8 17.7 0.00 0.00 0.00 73 1012.9
20260902005554 21 269 9.7 17.7 0.00 0.00 0.00 72 1012.9
20260902005056 21 283 4.8 17.7 0.00 0.00 0.00 72 1013.0
20260902004558 22 271 9.7 17.7 0.00 0.00 0.00 73 1013.0
20260902004056 22 267 6.4 24.1 0.00 0.00 0.00 72 1013.1
20260902003554 22 271 9.7 24.1 0.00 0.00 0.00 71 1013.1
20260902003105 22 276 11.3 19.3 0.00 0.00 0.00 71 1013.1
20260902002554 22 273 4.8 16.1 0.00 0.00 0.00 72 1013.1
20260902002055 22 189 8.0 17.7 0.00 0.00 0.00 70 1013.0
20260902001603 22 198 6.4 17.7 0.00 0.00 0.00 71 1013.0
20260902001054 22 180 6.4 16.1 0.00 0.00 0.00 71 1013.1
20260902000554 22 189 6.4 16.1 0.00 0.00 0.00 72 1013.0
20260902000055 22 185 8.0 16.1 0.00 0.00 0.00 72 1013.2
20260901235554 22 244 4.8 17.7 0.00 0.00 0.00 71 1013.1
20260901235055 22 194 8.0 17.7 0.00 0.00 0.00 70 1013.1
20260901234608 22 173 9.7 17.7 0.00 0.00 0.00 70 1013.2
20260901234053 22 256 8.0 17.7 0.00 0.00 0.00 71 1013.3
20260901233552 22 178 11.3 17.7 0.00 0.00 0.00 68 1013.2
20260901233104 22 288 8.0 19.3 0.00 0.00 0.00 71 1013.2
20260901232555 22 205 8.0 20.9 0.00 0.00 0.00 72 1013.2
20260901232059 22 254 9.7 22.5 0.00 0.00 0.00 72 1013.3
20260901231607 22 254 12.9 22.5 0.00 0.00 0.00 70 1013.2
20260901231054 22 287 9.7 22.5 0.00 0.00 0.00 69 1013.3
20260901230555 23 215 8.0 22.5 0.00 0.00 0.00 69 1013.4
20260901230108 23 250 6.4 20.9 0.00 0.00 0.00 70 1013.3
20260901225554 23 192 9.7 20.9 0.00 0.00 0.00 70 1013.5
20260901225054 23 310 8.0 17.7 0.00 0.00 0.00 70 1013.5
20260901224555 23 227 8.0 17.7 0.00 0.00 0.00 70 1013.5
20260901224054 23 252 8.0 19.3 0.00 0.00 0.00 71 1013.6
20260901223556 22 327 9.7 19.3 0.00 0.00 0.00 70 1013.5
20260901223100 23 245 11.3 20.9 0.00 0.00 0.00 69 1013.6
20260901222557 23 159 12.9 24.1 0.00 0.00 0.00 66 1013.5
20260901222057 23 187 9.7 24.1 0.00 0.00 0.00 69 1013.7
20260901221612 23 169 12.9 22.5 0.00 0.00 0.00 68 1013.6
20260901221055 23 222 9.7 22.5 0.00 0.00 0.00 69 1013.6
20260901220557 23 218 9.7 20.9 0.00 0.00 0.00 70 1013.6
20260901220059 23 163 9.7 20.9 0.00 0.00 0.00 69 1013.7
20260901215556 23 177 9.7 19.3 0.00 0.00 0.00 69 1013.8
20260901215055 23 211 11.3 25.7 0.00 0.00 0.00 69 1013.9
20260901214555 23 250 11.3 25.7 0.00 0.00 0.00 69 1013.9
20260901214055 23 194 11.3 19.3 0.00 0.00 0.00 69 1013.9
20260901213556 23 243 9.7 19.3 0.00 0.00 0.00 69 1014.0
20260901213105 23 274 8.0 16.1 0.00 0.00 0.00 69 1014.0
20260901212555 23 284 6.4 14.5 0.00 0.00 0.00 69 1014.0
20260901212055 23 183 6.4 19.3 0.00 0.00 0.00 69 1013.9
20260901211557 23 296 11.3 19.3 0.00 0.00 0.00 69 1014.1
20260901211054 23 274 8.0 19.3 0.00 0.00 0.00 69 1014.1
20260901210555 23 271 6.4 19.3 0.00 0.00 0.00 69 1014.1
20260901210056 23 219 9.7 17.7 0.00 0.00 0.00 69 1014.1
20260901205555 23 202 9.7 17.7 0.00 0.00 0.00 69 1014.2
20260901205056 23 260 8.0 20.9 0.00 0.00 0.00 69 1014.3
20260901204607 23 271 8.0 20.9 0.00 0.00 0.00 70 1014.3
20260901204055 23 192 6.4 17.7 0.00 0.00 0.00 69 1014.4
20260901203558 23 189 9.7 17.7 0.00 0.00 0.00 70 1014.4
20260901203104 23 250 11.3 17.7 0.00 0.00 0.00 71 1014.2
20260901202555 23 161 8.0 17.7 0.00 0.00 0.00 70 1014.4
20260901202056 23 247 9.7 17.7 0.00 0.00 0.00 69 1014.4
20260901201600 23 217 6.4 17.7 0.00 0.00 0.00 70 1014.5
20260901201056 23 271 8.0 19.3 0.00 0.00 0.00 70 1014.5
20260901200554 23 248 9.7 19.3 0.00 0.00 0.00 71 1014.6
20260901200056 23 182 8.0 19.3 0.00 0.00 0.00 70 1014.7
20260901195554 23 309 8.0 19.3 0.00 0.00 0.00 71 1014.7
20260901195057 23 163 6.4 17.7 0.00 0.00 0.00 70 1014.6
20260901194602 23 189 4.8 17.7 0.00 0.00 0.00 71 1014.6
20260901194056 23 173 4.8 17.7 0.00 0.00 0.00 72 1014.7
20260901193555 22 194 9.7 17.7 0.00 0.00 0.00 71 1014.8
20260901193101 23 178 11.3 22.5 0.00 0.00 0.00 70 1014.9
20260901192558 23 242 8.0 22.5 0.00 0.00 0.00 71 1014.8
20260901192055 23 179 8.0 19.3 0.00 0.00 0.00 71 1014.9